KD4BNP Weather Reports


Display with metric or nautical units.
time (UTC)temp
F
wind
direction
speed
MPH
gust
MPH
rain 1hr
in
rain 24hr
in
rain mn
in
humidity
%
barometer
mb
20190522032942 73 121 0.0 0.0 0.00 0.00 0.00 86 1016.1
20190522022954 74 124 0.0 0.0 0.00 0.00 0.00 84 1015.5
20190522015959 75 123 0.0 0.0 0.00 0.00 0.00 83 1015.1
20190522002953 78 100 0.0 3.0 0.00 0.00 0.00 77 1013.9
20190521235959 79 123 0.0 9.0 0.00 0.00 0.00 74 1013.7
20190521225959 81 115 4.0 12.0 0.00 0.00 0.00 68 1013.2
20190521222953 82 79 1.0 10.0 0.00 0.00 0.00 67 1013.1
20190521215959 83 62 1.0 10.0 0.00 0.00 0.00 66 1013.1
20190521202932 85 75 3.0 12.0 0.00 0.00 0.00 63 1013.3
20190521195937 85 99 3.0 12.0 0.00 0.00 0.00 64 1013.5
20190521182954 86 146 3.0 10.0 0.00 0.00 0.00 65 1014.2
20190521175959 86 90 2.0 12.0 0.00 0.00 0.00 66 1014.4
20190521172955 85 117 3.0 9.0 0.00 0.00 0.00 68 1014.7
20190521162953 85 96 0.0 0.0 0.00 0.00 0.00 56 1014.9
20190521145959 84 276 0.0 0.0 0.00 0.00 0.00 63 1015.0
20190521142954 82 229 0.0 0.0 0.00 0.00 0.00 70 1015.2
20190521122931 77 115 0.0 0.0 0.00 0.00 0.00 87 1014.7
20190521115936 73 115 0.0 0.0 0.00 0.00 0.00 96 1014.4
20190521105948 67 115 0.0 0.0 0.00 0.00 0.00 96 1014.1
20190521090000 67 115 0.0 0.0 0.00 0.00 0.00 95 1013.6
20190521082954 67 115 0.0 0.0 0.00 0.00 0.00 95 1013.5
20190521080000 68 115 0.0 0.0 0.00 0.00 0.00 95 1013.6
20190521072955 68 115 0.0 0.0 0.00 0.00 0.00 94 1013.8
20190521052954 69 115 0.0 0.0 0.00 0.00 0.00 93 1014.5
20190521045959 70 115 0.0 0.0 0.00 0.00 0.00 93 1014.7
20190521042930 70 115 0.0 0.0 0.00 0.00 0.00 92 1015.0